Vorticity
nan nan nan nan nan nan nan nan nan nan nan nan nan nan nan nan nan nan nan nan nan nan nan nan nan nan nan nan nan nan nan nan nan nan nan nan nan nan nan nan nan nan nan
nan 6 5 5 5 5 6 8 7 6 4 5 5 5 6 6 6 5 6 7 6 5 5 5 5 4 4 4 4 4 3 2 3 4 4 3 3 4 3 5 13 8 nan
nan 4 6 4 5 6 5 5 6 6 6 5 6 6 4 5 6 5 5 5 5 4 4 4 4 4 3 3 4 3 3 4 3 2 3 3 6 4 4 5 7 6 nan
nan 7 5 5 5 5 5 5 5 6 6 6 5 6 6 6 4 4 5 4 3 4 3 3 3 3 3 3 3 3 4 5 4 5 8 12 6 5 4 4 4 5 nan
nan 8 6 6 5 5 5 6 5 4 6 8 6 5 5 6 5 4 3 3 3 3 4 4 4 4 4 4 4 4 4 3 5 9 7 13 13 10 6 3 5 6 nan
nan 7 6 6 6 5 6 8 6 5 7 6 6 6 5 5 4 4 4 4 4 3 3 4 5 5 6 6 6 5 6 5 11 13 5 8 14 12 7 4 6 7 nan
nan 7 5 5 7 7 7 7 6 5 5 6 5 5 4 5 5 4 3 3 4 5 5 5 5 6 6 6 7 7 7 3 7 10 13 14 10 9 5 5 5 5 nan
nan 5 6 5 5 6 8 6 5 6 7 5 4 4 5 3 3 3 4 4 4 4 4 5 6 6 6 7 6 6 11 14 9 5 9 10 11 7 6 5 5 5 nan
nan 3 6 5 4 5 5 5 5 6 6 5 4 4 4 4 3 3 4 4 4 5 6 6 5 7 7 6 8 6 13 11 5 2 10 18 12 6 5 5 6 5 nan
nan 6 3 6 5 5 6 4 5 5 4 4 4 3 2 6 9 7 8 7 4 6 8 6 6 12 3 11 11 12 12 -4 3 10 5 10 12 6 6 6 5 6 nan
nan 8 8 6 7 5 8 6 6 6 5 5 6 8 3 7 14 10 10 7 3 10 8 7 9 5 4 14 17 18 11 9 0 -2 7 14 15 7 6 6 6 6 nan
nan 4 5 7 6 5 7 6 6 7 6 8 10 9 8 5 6 12 10 11 5 5 -1 13 16 12 17 7 11 15 11 12 10 3 17 13 7 5 5 6 8 7 nan
nan 7 5 9 5 8 4 5 5 8 9 7 6 5 11 8 11 8 6 11 8 1 -2 9 21 7 7 4 14 20 8 6 12 9 15 14 5 5 5 6 8 7 nan
nan 10 8 4 5 9 5 8 8 8 8 10 7 2 10 11 13 8 2 5 8 1 10 10 10 7 5 9 7 1 6 13 11 15 13 12 6 5 6 5 6 6 nan
nan 5 10 5 6 5 7 9 8 9 8 8 8 14 5 3 5 8 9 7 11 3 3 8 7 11 3 10 13 8 6 7 9 13 16 13 6 5 5 6 6 6 nan
nan 5 7 5 6 5 6 7 8 8 10 4 7 7 5 9 6 8 8 6 14 8 11 9 9 4 1 7 5 7 8 9 9 8 11 15 10 7 8 7 5 6 nan
nan 7 5 4 7 5 7 4 6 9 6 7 8 5 6 6 6 7 9 8 7 7 8 9 7 8 7 6 6 6 8 9 9 7 10 13 13 11 7 7 9 7 nan
nan 8 7 6 7 6 6 6 7 10 5 8 6 8 7 6 5 8 8 7 6 10 9 8 7 8 7 6 6 7 7 8 13 6 13 9 15 14 11 11 7 7 nan
nan 8 5 9 9 6 6 6 7 9 6 9 9 10 7 5 7 9 6 7 7 10 7 6 8 6 6 6 6 8 8 7 8 8 8 5 11 12 16 12 8 11 nan
nan 6 4 8 9 7 5 6 10 6 6 8 9 10 10 6 9 8 9 6 6 9 7 6 5 7 8 7 7 9 9 12 7 7 11 14 4 -1 11 9 12 15 nan
nan 6 6 8 7 6 5 8 9 6 8 8 8 8 7 6 9 6 8 9 10 4 4 4 8 10 9 9 7 7 9 13 16 11 1 4 7 8 8 12 11 14 nan
nan 6 7 7 6 5 4 8 7 8 9 10 9 8 6 7 6 4 7 6 10 9 10 7 5 7 8 6 7 9 10 11 8 12 7 10 8 10 7 8 9 11 nan
nan 6 6 7 6 6 4 6 4 8 10 9 11 8 7 7 4 8 9 7 4 11 9 10 10 4 6 6 10 11 7 6 8 8 7 9 9 10 12 9 11 9 nan
nan 7 7 7 6 6 5 5 9 6 7 8 9 7 10 11 7 7 6 8 7 6 5 9 12 10 9 8 8 7 12 10 6 8 8 5 7 8 12 10 6 8 nan
nan 7 7 8 7 7 8 5 6 6 6 8 8 9 9 7 10 9 8 6 7 7 6 7 8 9 8 8 9 9 10 12 12 8 4 5 8 12 10 6 8 8 nan
nan nan nan nan nan nan nan nan nan nan nan nan nan nan nan nan nan nan nan nan nan nan nan nan nan nan nan nan nan nan nan nan nan nan nan nan nan nan nan nan nan nan nan
CAPE
1290 1161 2310 2025 1987 2234 2626 2771 2828 2585 2397 2232 2252 2380 2217 2161 2199 2270 2401 2431 2309 2108 1595 1685 1748 1819 1679 1362 1356 1352 1314 1175 1053 1321 953 1032 938 868 721 695 745 860 1275
671 1323 2606 2399 2110 2163 2305 2634 2677 2604 2332 2277 2341 2201 2350 2274 2250 1858 2011 2041 2216 1922 1814 1699 1703 1738 1794 1685 1420 1257 1300 1011 885 772 1124 1000 969 803 608 837 1741 943 1061
470 857 1686 2713 2342 2224 2124 2554 2565 2533 2312 2266 2181 2157 2130 1959 2116 1916 2141 2068 1925 1748 1729 1722 1677 1618 1624 1691 1752 1616 1215 1044 952 855 844 1420 611 1220 1056 602 1201 1252 1052
431 549 1062 2527 2568 2334 2565 2648 2811 2412 2158 2457 2141 2277 1816 1626 1477 2090 1962 1717 1726 1660 1564 1393 1211 1110 1057 1026 1019 1007 1155 1365 1651 1663 1512 1322 1110 1276 1318 1113 498 1178 797
245 495 1474 2123 2010 2021 2094 2273 2405 1973 2263 2284 2203 1682 1823 1452 1372 1758 1485 1486 1325 1158 1119 1054 1050 1076 1099 1086 1046 1114 1325 1668 1232 1454 1731 1057 611 1323 1655 1602 785 519 866
504 973 2048 2342 2042 2077 2177 2467 1918 1588 2346 2297 1606 1860 1512 1427 1349 1399 1348 1172 960 695 647 859 1385 1922 2155 2271 2181 1948 2141 2177 1766 1545 1879 204 1436 1918 1787 1778 1223 1163 1377
557 405 1252 2206 2053 1597 1776 2062 1446 1763 2159 2318 2065 1989 1954 1584 1461 1252 915 732 873 1289 1743 2185 2507 2759 2893 2916 3200 3408 3446 2655 1110 221 156 699 1460 2530 1779 1790 1685 1114 1465
550 776 1343 2126 1974 2016 1960 2091 1631 1912 1876 1608 1599 1820 1527 1178 1005 905 960 1316 1624 1914 2265 2608 2758 2810 2630 2815 3412 3748 3879 2692 85 59 316 705 1583 2291 1876 2031 1778 1194 1363
803 908 928 1124 1356 973 1267 1925 1175 1959 2028 1296 1315 1164 984 1072 1045 1101 1245 1264 1674 2284 2462 2500 2730 3209 3203 3526 3682 3745 3863 833 1 0 46 408 1699 2149 1460 2345 2357 2266 1697
931 754 1485 1431 726 223 497 1258 794 1184 1286 1012 1035 1094 1178 1286 1352 1555 2075 1649 2104 2552 2636 3192 3376 2639 1995 2933 3900 3869 4068 59 0 1 52 507 1970 1913 1337 1689 2209 2733 2631
499 924 786 930 1333 1263 1467 1904 1218 919 977 945 1048 1211 1391 1792 1642 2159 2365 1780 2068 2733 2287 717 1254 459 171 276 2285 3793 3057 1251 8 136 209 1599 1895 1712 1349 1509 1817 2649 2890
68 477 412 466 769 1054 837 1997 1651 950 963 1297 1340 1803 1668 1933 1405 1926 1351 2398 3035 1452 144 570 506 328 294 677 1083 2206 2 326 753 66 558 2057 2395 2449 2300 2803 2783 2402 2780
110 111 211 655 959 482 790 1191 994 934 1095 2200 2426 3270 3106 2445 2662 2144 2182 1515 366 155 140 231 367 996 0 190 288 1047 0 30 839 872 1565 2913 2936 2887 2526 2893 3045 2972 3102
91 89 57 402 1605 1000 852 867 1052 913 1235 1275 2050 3604 2588 3010 3353 870 2262 197 302 0 0 168 1600 2707 41 406 302 1768 1172 1256 945 1355 2570 3324 3143 3219 3026 3084 3258 3167 3253
292 275 508 747 1402 2341 2059 2340 1969 1318 819 1892 2647 3171 1571 1595 3328 3160 2625 144 368 252 78 759 1559 347 1561 989 1313 1652 1508 1587 1363 1426 1797 3827 3501 3523 3570 3432 3473 3313 2986
325 267 597 1042 1608 1677 2654 2510 2717 1914 2275 1752 1764 2417 2869 2376 3873 3196 1962 2793 2979 2382 3111 826 2820 751 0 3 1621 1600 1750 1157 1683 1536 1426 2951 3530 3595 3504 3310 2933 2905 2770
378 213 566 1042 1030 1620 2385 2157 2587 1950 998 1822 2367 2525 2272 3059 3553 4167 2923 2281 2692 3200 2929 2500 2770 289 42 31 436 651 607 1577 1862 1370 1521 1770 2834 3474 3449 2989 2825 2523 2590
288 545 515 136 739 1184 2497 2661 2218 1302 1254 1731 1996 2104 2650 2783 2760 3473 2444 3082 3192 2648 3445 2693 1802 535 336 144 51 115 176 899 2106 1416 1455 1800 2147 1749 3195 3120 2874 2471 2248
846 787 685 1063 704 1009 2383 2206 2646 2566 2149 2042 1885 2190 3482 2393 2371 2836 2386 3594 3436 3872 3200 2282 2922 2106 1347 1051 871 170 363 1274 715 542 487 289 633 383 1715 2550 1912 2108 2052
926 746 1003 963 1449 1536 1918 3076 1957 2336 2041 1946 2271 2535 3446 2554 1880 2707 2832 3264 3219 3710 2693 2985 2549 2920 1966 1746 1633 2169 2038 2067 1195 162 154 292 373 166 1015 1826 1807 1838 1647
1064 913 1272 1211 2086 1362 1942 1518 1593 1628 1350 1481 2133 2789 3472 2085 3029 3123 2581 3336 3983 2622 3 2 1954 1837 1541 2481 2620 2319 2135 1795 1725 905 343 119 0 23 358 1473 2039 2040 1843
1283 1150 1381 1185 2214 1733 2024 1686 2050 2388 1165 1669 2075 2974 2606 3215 2372 2378 3649 3529 4247 3226 0 0 0 2201 2475 3153 2380 2093 1821 1529 1379 1768 1343 243 101 40 419 1653 2171 2123 1737
1057 1180 1233 1425 2187 1616 2133 2016 3347 3065 3126 2670 2383 2997 2902 2804 2918 3332 3130 4108 4274 4519 1655 610 1609 2774 2843 2728 2510 2111 1769 1601 1572 2368 1377 1952 1811 1454 1018 1381 1414 1433 1571
1059 1283 1751 1465 2094 2072 2353 2640 3269 2098 2540 2394 2742 2091 2404 2780 2996 2765 3686 3782 4566 4578 4009 3712 3255 2881 2596 2953 2755 2154 1746 2163 1999 1676 1614 1381 1374 1449 862 935 901 1299 1019
871 1263 1533 1612 1747 2068 2162 2734 3004 3101 2430 2756 2331 3629 2298 3433 2539 2368 2950 3655 4374 4475 3997 3800 3748 4536 3993 2694 2262 2226 2442 1662 1672 1758 1424 1349 1296 1275 605 870 1183 1025 458
839 1178 1291 1698 1906 1893 2263 2232 2926 3878 2374 3248 3546 3354 2490 2496 2072 2522 2725 3349 4090 4611 4024 4307 4164 4226 3438 3110 2974 2347 2311 2487 1710 1478 1248 928 1085 1097 1123 1227 752 479 11